Zurück zum Katalog

FALCON 9 R/B

AktivHEO
NORAD 48839·ROCKET BODY·🇺🇸 United States

Gestartet Jun 6, 2021 von Cape Canaveral Space Force Station

Loading…

Nächste Überflüge (nächste 24 Stunden)

TLE

AktuellSource: Space-Track

Epoche: Sep 14, 2026, 09:18 UTC

1 48839U 21049B   26257.38796660  .00026378  00000-0  86999-3 0  9995
2 48839  27.0174  99.3957 5080820  21.0925 354.0468  5.58869409 91957

Verfolge FALCON 9 R/B in Echtzeit mit AllMySat

Download on the App Store